Location: Squirrel Cove
(50.1074°N, 124.9139°W)
Time: 13:09:27
(UTC-07:00)

PCSat - Pass Details

Date: 29 May 2022
Orbit: 784 x 795 km, 67.1° (Epoch: 26 June)

Event Time Altitude Azimuth Distance (km) Brightness Sun altitude
Rises 00:33:03 0° 324° (NW) 3,307 14.0 -17.6°
Reaches altitude 10° 00:35:45 10° 335° (NNW) 2,374 13.2 -17.7°
Maximum altitude 00:40:36 32° 38° (NE) 1,350 11.2 -17.8°
Drops below altitude 10° 00:45:26 10° 101° (E) 2,364 11.8 -17.9°
Enters shadow 00:47:18 - 109° (ESE) 3,006 12.3 -18.0°
